,,,PA_Meas_PMT16A,,PR_Meas_QMR101_102,,RH_Meas_QMH101,,SR_Meas_QMS101,,TA_Meas_QMH101,,GenWind,,GenWind,
date,time,status,PA,status,PR,status,RH,status,SR,status,TA,status,DirAvg,status,SpdAvg,
2011-04-02, 00:00:05,VALID,1009.39,VALID,0,VALID,103.428,VALID,0,VALID,24.2981,VALID,282,VALID,0,
2011-04-02, 00:01:05,VALID,1009.39,VALID,0,VALID,103.459,VALID,0,VALID,24.2981,VALID,282,VALID,0,
2011-04-02, 00:02:05,VALID,1009.38,VALID,0,VALID,103.527,VALID,0,VALID,24.2981,VALID,282,VALID,0,
2011-04-02, 00:03:05,VALID,1009.34,VALID,0,VALID,103.55,VALID,0,VALID,24.2786,VALID,282,VALID,0,
2011-04-02, 00:04:05,VALID,1009.34,VALID,0,VALID,103.542,VALID,0,VALID,24.2786,VALID,282,VALID,0,
2011-04-02, 00:05:05,VALID,1009.35,VALID,0,VALID,103.558,VALID,0,VALID,24.2591,VALID,282,VALID,0,
2011-04-02, 00:06:05,VALID,1009.36,VALID,0,VALID,103.588,VALID,0,VALID,24.2378,VALID,282,VALID,0,
2011-04-02, 00:07:05,VALID,1009.35,VALID,0,VALID,103.634,VALID,0,VALID,24.2396,VALID,282,VALID,0,
2011-04-02, 00:08:05,VALID,1009.32,VALID,0,VALID,103.619,VALID,0,VALID,24.2396,VALID,282,VALID,0,
2011-04-02, 00:09:05,VALID,1009.31,VALID,0,VALID,103.664,VALID,0,VALID,24.2202,VALID,282,VALID,0,
2011-04-02, 00:10:05,VALID,1009.29,VALID,0,VALID,103.695,VALID,0,VALID,24.1988,VALID,282,VALID,0,
2011-04-02, 00:11:05,VALID,1009.29,VALID,0,VALID,103.695,VALID,0,VALID,24.2202,VALID,282,VALID,0,
2011-04-02, 00:12:05,VALID,1009.24,VALID,0,VALID,103.748,VALID,0,VALID,24.1988,VALID,282,VALID,0,
2011-04-02, 00:13:05,VALID,1009.23,VALID,0,VALID,103.779,VALID,0,VALID,24.1812,VALID,282,VALID,0,
2011-04-02, 00:14:05,VALID,1009.21,VALID,0,VALID,103.802,VALID,0,VALID,24.1812,VALID,282,VALID,0,
2011-04-02, 00:15:05,VALID,1009.17,VALID,0,VALID,103.848,VALID,0,VALID,24.1812,VALID,282,VALID,0,
2011-04-02, 00:16:05,VALID,1009.21,VALID,0,VALID,103.848,VALID,0,VALID,24.1422,VALID,282,VALID,0,
2011-04-02, 00:17:05,VALID,1009.16,VALID,0,VALID,103.855,VALID,0,VALID,24.1617,VALID,282,VALID,0,
2011-04-02, 00:18:05,VALID,1009.14,VALID,0,VALID,103.901,VALID,0,VALID,24.1209,VALID,282,VALID,0,
2011-04-02, 00:19:05,VALID,1009.15,VALID,0,VALID,103.931,VALID,0.105969,VALID,24.1014,VALID,282,VALID,0,
2011-04-02, 00:20:05,VALID,1009.11,VALID,0,VALID,103.962,VALID,0,VALID,24.1227,VALID,282,VALID,0,
2011-04-02, 00:21:05,VALID,1009.13,VALID,0,VALID,103.97,VALID,0,VALID,24.1227,VALID,282,VALID,0,
2011-04-02, 00:22:05,VALID,1009.11,VALID,0,VALID,103.97,VALID,0,VALID,24.0819,VALID,282,VALID,0,
2011-04-02, 00:23:05,VALID,1009.11,VALID,0,VALID,103.985,VALID,0,VALID,24.0819,VALID,282,VALID,0,
2011-04-02, 00:24:05,VALID,1009.09,VALID,0,VALID,104,VALID,0,VALID,24.1032,VALID,282,VALID,0,
2011-04-02, 00:25:05,VALID,1009.08,VALID,0,VALID,104,VALID,0,VALID,24.0819,VALID,282,VALID,0,
2011-04-02, 00:26:05,VALID,1009.07,VALID,0,VALID,104,VALID,0,VALID,24.1032,VALID,282,VALID,0,
2011-04-02, 00:27:05,VALID,1009.07,VALID,0,VALID,104,VALID,0,VALID,24.1032,VALID,282,VALID,0,
2011-04-02, 00:28:05,VALID,1009.05,VALID,0,VALID,104,VALID,0,VALID,24.0837,VALID,282,VALID,0,
2011-04-02, 00:29:05,VALID,1009.04,VALID,0,VALID,104,VALID,0,VALID,24.1032,VALID,282,VALID,0,
2011-04-02, 00:30:05,VALID,1009.02,VALID,0,VALID,104,VALID,0,VALID,24.0819,VALID,282,VALID,0,
2011-04-02, 00:31:05,VALID,1009,VALID,0,VALID,104,VALID,0,VALID,24.0837,VALID,282,VALID,0,
2011-04-02, 00:32:05,VALID,1008.98,VALID,0,VALID,104,VALID,0,VALID,24.0624,VALID,282,VALID,0,
2011-04-02, 00:33:05,VALID,1008.95,VALID,0,VALID,104,VALID,0,VALID,24.0643,VALID,282,VALID,0,
2011-04-02, 00:34:05,VALID,1008.97,VALID,0,VALID,104,VALID,0,VALID,24.0448,VALID,282,VALID,0,
2011-04-02, 00:35:05,VALID,1008.95,VALID,0,VALID,104,VALID,0,VALID,24.0235,VALID,282,VALID,0,
2011-04-02, 00:36:05,VALID,1008.94,VALID,0,VALID,104,VALID,0,VALID,24.004,VALID,282,VALID,0,
2011-04-02, 00:37:05,VALID,1008.93,VALID,0,VALID,104,VALID,0,VALID,24.0253,VALID,282,VALID,0,
2011-04-02, 00:38:05,VALID,1008.89,VALID,0,VALID,104,VALID,0,VALID,24.0448,VALID,282,VALID,0,
2011-04-02, 00:39:05,VALID,1008.89,VALID,0,VALID,104,VALID,0,VALID,24.0253,VALID,282,VALID,0,
2011-04-02, 00:40:05,VALID,1008.91,VALID,0,VALID,104,VALID,0,VALID,24.004,VALID,282,VALID,0,
2011-04-02, 00:41:05,VALID,1008.92,VALID,0,VALID,104,VALID,0,VALID,24.0058,VALID,282,VALID,0,
2011-04-02, 00:42:05,VALID,1008.91,VALID,0,VALID,104,VALID,0,VALID,23.9863,VALID,282,VALID,0,
2011-04-02, 00:43:05,VALID,1008.91,VALID,0,VALID,104,VALID,0,VALID,23.9863,VALID,282,VALID,0,
2011-04-02, 00:44:05,VALID,1008.91,VALID,0,VALID,104,VALID,0,VALID,23.9863,VALID,282,VALID,0,
2011-04-02, 00:45:04,VALID,1008.91,VALID,0,VALID,104,VALID,0,VALID,23.965,VALID,282,VALID,0,
2011-04-02, 00:46:04,VALID,1008.91,VALID,0,VALID,104,VALID,0,VALID,23.9668,VALID,282,VALID,0,
2011-04-02, 00:47:04,VALID,1008.91,VALID,0,VALID,104,VALID,0,VALID,23.9668,VALID,282,VALID,0,
2011-04-02, 00:48:04,VALID,1008.88,VALID,0,VALID,104,VALID,0,VALID,23.9473,VALID,282,VALID,0,
2011-04-02, 00:49:04,VALID,1008.87,VALID,0,VALID,104,VALID,0.105969,VALID,23.9668,VALID,282,VALID,0,
2011-04-02, 00:50:04,VALID,1008.88,VALID,0,VALID,104,VALID,0,VALID,23.9668,VALID,282,VALID,0,
2011-04-02, 00:51:04,VALID,1008.88,VALID,0,VALID,104,VALID,0,VALID,23.9668,VALID,282,VALID,0,
2011-04-02, 00:52:04,VALID,1008.87,VALID,0,VALID,104,VALID,0,VALID,23.9455,VALID,282,VALID,0,
2011-04-02, 00:53:04,VALID,1008.87,VALID,0,VALID,104,VALID,0,VALID,23.926,VALID,282,VALID,0,
2011-04-02, 00:54:04,VALID,1008.87,VALID,0,VALID,104,VALID,0,VALID,23.9473,VALID,282,VALID,0,
2011-04-02, 00:55:04,VALID,1008.86,VALID,0,VALID,104,VALID,0,VALID,23.9668,VALID,282,VALID,0,
2011-04-02, 00:56:04,VALID,1008.87,VALID,0,VALID,104,VALID,0,VALID,23.9668,VALID,282,VALID,0,
2011-04-02, 00:57:04,VALID,1008.85,VALID,0,VALID,104,VALID,0,VALID,23.9668,VALID,282,VALID,0,
2011-04-02, 00:58:04,VALID,1008.84,VALID,0,VALID,104,VALID,0,VALID,23.9473,VALID,282,VALID,0,
2011-04-02, 00:59:04,VALID,1008.83,VALID,0,VALID,104,VALID,0,VALID,23.926,VALID,282,VALID,0,
2011-04-02, 01:00:04,VALID,1008.83,VALID,0,VALID,104,VALID,0,VALID,23.9473,VALID,282,VALID,0,
2011-04-02, 01:01:04,VALID,1008.83,VALID,0,VALID,104,VALID,0,VALID,23.9473,VALID,282,VALID,0,
2011-04-02, 01:02:04,VALID,1008.82,VALID,0,VALID,104,VALID,0,VALID,23.9473,VALID,282,VALID,0,
2011-04-02, 01:03:04,VALID,1008.82,VALID,0,VALID,104,VALID,0,VALID,23.9278,VALID,282,VALID,0,
2011-04-02, 01:04:04,VALID,1008.8,VALID,0,VALID,104,VALID,0,VALID,23.9278,VALID,282,VALID,0,
2011-04-02, 01:05:04,VALID,1008.8,VALID,0,VALID,104,VALID,0,VALID,23.9278,VALID,282,VALID,0,
2011-04-02, 01:06:04,VALID,1008.79,VALID,0,VALID,104,VALID,0,VALID,23.9278,VALID,282,VALID,0,
2011-04-02, 01:07:04,VALID,1008.77,VALID,0,VALID,104,VALID,0,VALID,23.9084,VALID,282,VALID,0,
2011-04-02, 01:08:04,VALID,1008.76,VALID,0,VALID,104,VALID,0,VALID,23.9084,VALID,282,VALID,0,
2011-04-02, 01:09:04,VALID,1008.75,VALID,0,VALID,104,VALID,0,VALID,23.9084,VALID,282,VALID,0,
2011-04-02, 01:10:04,VALID,1008.71,VALID,0,VALID,104,VALID,0,VALID,23.8889,VALID,282,VALID,0,
2011-04-02, 01:11:04,VALID,1008.7,VALID,0,VALID,104,VALID,0,VALID,23.9084,VALID,282,VALID,0,
2011-04-02, 01:12:04,VALID,1008.68,VALID,0,VALID,104,VALID,0,VALID,23.8889,VALID,282,VALID,0,
2011-04-02, 01:13:04,VALID,1008.65,VALID,0,VALID,104,VALID,0,VALID,23.8694,VALID,282,VALID,0,
2011-04-02, 01:14:04,VALID,1008.67,VALID,0,VALID,104,VALID,0,VALID,23.8694,VALID,282,VALID,0,
2011-04-02, 01:15:04,VALID,1008.65,VALID,0,VALID,104,VALID,0,VALID,23.8694,VALID,282,VALID,0,
2011-04-02, 01:16:04,VALID,1008.63,VALID,0,VALID,104,VALID,0,VALID,23.8481,VALID,282,VALID,0,
2011-04-02, 01:17:04,VALID,1008.59,VALID,0,VALID,104,VALID,0,VALID,23.8499,VALID,282,VALID,0,
2011-04-02, 01:18:04,VALID,1008.57,VALID,0,VALID,104,VALID,0,VALID,23.8694,VALID,282,VALID,0,
2011-04-02, 01:19:04,VALID,1008.59,VALID,0,VALID,104,VALID,0,VALID,23.8499,VALID,282,VALID,0,
2011-04-02, 01:20:04,VALID,1008.56,VALID,0,VALID,104,VALID,0,VALID,23.8499,VALID,282,VALID,0,
2011-04-02, 01:21:04,VALID,1008.56,VALID,0,VALID,104,VALID,0,VALID,23.8499,VALID,282,VALID,0,
2011-04-02, 01:22:04,VALID,1008.55,VALID,0,VALID,104,VALID,0,VALID,23.8499,VALID,282,VALID,0,
2011-04-02, 01:23:04,VALID,1008.55,VALID,0,VALID,104,VALID,0,VALID,23.8286,VALID,282,VALID,0,
2011-04-02, 01:24:04,VALID,1008.53,VALID,0,VALID,104,VALID,0,VALID,23.8304,VALID,282,VALID,0,
2011-04-02, 01:25:04,VALID,1008.54,VALID,0,VALID,104,VALID,0,VALID,23.8304,VALID,282,VALID,0,
2011-04-02, 01:26:04,VALID,1008.52,VALID,0,VALID,104,VALID,0,VALID,23.8304,VALID,282,VALID,0,
2011-04-02, 01:27:04,VALID,1008.5,VALID,0,VALID,104,VALID,0,VALID,23.8304,VALID,282,VALID,0,
2011-04-02, 01:28:04,VALID,1008.49,VALID,0,VALID,104,VALID,0,VALID,23.8304,VALID,282,VALID,0,
2011-04-02, 01:29:04,VALID,1008.48,VALID,0,VALID,104,VALID,0,VALID,23.8304,VALID,282,VALID,0,
2011-04-02, 01:30:04,VALID,1008.46,VALID,0,VALID,104,VALID,0,VALID,23.8304,VALID,282,VALID,0,
2011-04-02, 01:31:04,VALID,1008.45,VALID,0,VALID,104,VALID,0,VALID,23.7896,VALID,282,VALID,0,
2011-04-02, 01:32:04,VALID,1008.42,VALID,0,VALID,104,VALID,0,VALID,23.8109,VALID,282,VALID,0,
2011-04-02, 01:33:04,VALID,1008.42,VALID,0,VALID,104,VALID,0,VALID,23.7914,VALID,282,VALID,0,
2011-04-02, 01:34:04,VALID,1008.4,VALID,0,VALID,104,VALID,0,VALID,23.7914,VALID,282,VALID,0,
2011-04-02, 01:35:04,VALID,1008.38,VALID,0,VALID,104,VALID,0,VALID,23.7914,VALID,282,VALID,0,
2011-04-02, 01:36:04,VALID,1008.38,VALID,0,VALID,104,VALID,0,VALID,23.7914,VALID,282,VALID,0,
2011-04-02, 01:37:04,VALID,1008.35,VALID,0,VALID,104,VALID,0,VALID,23.7914,VALID,282,VALID,0,
2011-04-02, 01:38:04,VALID,1008.34,VALID,0,VALID,104,VALID,0,VALID,23.8109,VALID,282,VALID,0,
2011-04-02, 01:39:04,VALID,1008.3,VALID,0,VALID,104,VALID,0,VALID,23.7914,VALID,282,VALID,0,
2011-04-02, 01:40:04,VALID,1008.3,VALID,0,VALID,104,VALID,0,VALID,23.7701,VALID,282,VALID,0,
2011-04-02, 01:41:04,VALID,1008.28,VALID,0,VALID,104,VALID,0,VALID,23.772,VALID,282,VALID,0,
2011-04-02, 01:42:04,VALID,1008.29,VALID,0,VALID,104,VALID,0,VALID,23.772,VALID,282,VALID,0,
2011-04-02, 01:43:04,VALID,1008.26,VALID,0,VALID,104,VALID,0,VALID,23.772,VALID,282,VALID,0,
2011-04-02, 01:44:04,VALID,1008.27,VALID,0,VALID,104,VALID,0,VALID,23.7525,VALID,282,VALID,0,
2011-04-02, 01:45:04,VALID,1008.26,VALID,0,VALID,104,VALID,0,VALID,23.7525,VALID,282,VALID,0,
2011-04-02, 01:46:04,VALID,1008.25,VALID,0,VALID,104,VALID,0,VALID,23.7117,VALID,282,VALID,0,
2011-04-02, 01:47:04,VALID,1008.23,VALID,0,VALID,104,VALID,0,VALID,23.7135,VALID,282,VALID,0,
2011-04-02, 01:48:04,VALID,1008.22,VALID,0,VALID,104,VALID,0,VALID,23.7135,VALID,282,VALID,0,
2011-04-02, 01:49:04,VALID,1008.2,VALID,0,VALID,104,VALID,0,VALID,23.7135,VALID,282,VALID,0,
2011-04-02, 01:50:04,VALID,1008.21,VALID,0,VALID,104,VALID,0,VALID,23.6727,VALID,282,VALID,0,
2011-04-02, 01:51:04,VALID,1008.22,VALID,0,VALID,104,VALID,0,VALID,23.7153,VALID,282,VALID,0,
2011-04-02, 01:52:04,VALID,1008.18,VALID,0,VALID,104,VALID,0,VALID,23.694,VALID,282,VALID,0,
2011-04-02, 01:53:04,VALID,1008.21,VALID,0,VALID,104,VALID,0,VALID,23.694,VALID,282,VALID,0,
2011-04-02, 01:54:04,VALID,1008.21,VALID,0,VALID,104,VALID,0,VALID,23.6727,VALID,282,VALID,0,
2011-04-02, 01:55:04,VALID,1008.23,VALID,0,VALID,104,VALID,0,VALID,23.694,VALID,282,VALID,0,
2011-04-02, 01:56:04,VALID,1008.23,VALID,0,VALID,104,VALID,0,VALID,23.6727,VALID,282,VALID,0,
2011-04-02, 01:57:04,VALID,1008.23,VALID,0,VALID,104,VALID,0,VALID,23.6727,VALID,282,VALID,0,
2011-04-02, 01:58:04,VALID,1008.25,VALID,0,VALID,104,VALID,0,VALID,23.6727,VALID,282,VALID,0,
2011-04-02, 01:59:04,VALID,1008.27,VALID,0,VALID,104,VALID,0,VALID,23.6922,VALID,282,VALID,0,
2011-04-02, 02:00:04,VALID,1008.25,VALID,0,VALID,104,VALID,0,VALID,23.6745,VALID,282,VALID,0,
2011-04-02, 02:01:04,VALID,1008.24,VALID,0,VALID,104,VALID,0,VALID,23.6745,VALID,282,VALID,0,
2011-04-02, 02:02:04,VALID,1008.24,VALID,0,VALID,104,VALID,0,VALID,23.655,VALID,282,VALID,0,
2011-04-02, 02:03:04,VALID,1008.2,VALID,0,VALID,104,VALID,0,VALID,23.655,VALID,282,VALID,0,
2011-04-02, 02:04:04,VALID,1008.2,VALID,0,VALID,104,VALID,0,VALID,23.6338,VALID,282,VALID,0,
2011-04-02, 02:05:04,VALID,1008.23,VALID,0,VALID,104,VALID,0,VALID,23.6338,VALID,282,VALID,0,
2011-04-02, 02:06:04,VALID,1008.24,VALID,0,VALID,104,VALID,0,VALID,23.6143,VALID,282,VALID,0,
2011-04-02, 02:07:04,VALID,1008.23,VALID,0,VALID,104,VALID,0,VALID,23.6356,VALID,282,VALID,0,
2011-04-02, 02:08:04,VALID,1008.24,VALID,0,VALID,104,VALID,0,VALID,23.6338,VALID,282,VALID,0,
2011-04-02, 02:09:04,VALID,1008.23,VALID,0,VALID,104,VALID,0,VALID,23.6338,VALID,282,VALID,0,
2011-04-02, 02:10:04,VALID,1008.21,VALID,0,VALID,104,VALID,0,VALID,23.6338,VALID,282,VALID,0,
2011-04-02, 02:11:04,VALID,1008.22,VALID,0,VALID,104,VALID,0,VALID,23.6356,VALID,282,VALID,0,
2011-04-02, 02:12:04,VALID,1008.2,VALID,0,VALID,104,VALID,0,VALID,23.5948,VALID,282,VALID,0,
2011-04-02, 02:13:04,VALID,1008.18,VALID,0,VALID,104,VALID,0,VALID,23.5948,VALID,282,VALID,0,
2011-04-02, 02:14:04,VALID,1008.14,VALID,0,VALID,104,VALID,0,VALID,23.5948,VALID,282,VALID,0,
2011-04-02, 02:15:04,VALID,1008.14,VALID,0,VALID,104,VALID,0,VALID,23.5948,VALID,282,VALID,0,
2011-04-02, 02:16:04,VALID,1008.11,VALID,0,VALID,104,VALID,0.105969,VALID,23.5753,VALID,282,VALID,0,
2011-04-02, 02:17:04,VALID,1008.09,VALID,0,VALID,104,VALID,0,VALID,23.5558,VALID,282,VALID,0,
2011-04-02, 02:18:04,VALID,1008.09,VALID,0,VALID,104,VALID,0,VALID,23.5771,VALID,282,VALID,0,
2011-04-02, 02:19:04,VALID,1008.07,VALID,0,VALID,104,VALID,0,VALID,23.5558,VALID,282,VALID,0,
2011-04-02, 02:20:04,VALID,1008.09,VALID,0,VALID,104,VALID,0,VALID,23.5576,VALID,282,VALID,0,
2011-04-02, 02:21:04,VALID,1008.07,VALID,0,VALID,104,VALID,0,VALID,23.5363,VALID,282,VALID,0,
2011-04-02, 02:22:04,VALID,1008.06,VALID,0,VALID,104,VALID,0,VALID,23.5381,VALID,282,VALID,0,
2011-04-02, 02:23:04,VALID,1008.04,VALID,0,VALID,104,VALID,0,VALID,23.5381,VALID,282,VALID,0,
2011-04-02, 02:24:04,VALID,1008.02,VALID,0,VALID,104,VALID,0,VALID,23.5381,VALID,282,VALID,0,
2011-04-02, 02:25:04,VALID,1008.01,VALID,0,VALID,104,VALID,0,VALID,23.5381,VALID,282,VALID,0,
2011-04-02, 02:26:04,VALID,1008,VALID,0,VALID,104,VALID,0,VALID,23.5381,VALID,282,VALID,0,
2011-04-02, 02:27:04,VALID,1007.96,VALID,0,VALID,104,VALID,0,VALID,23.5381,VALID,282,VALID,0,
2011-04-02, 02:28:04,VALID,1007.98,VALID,0,VALID,104,VALID,0,VALID,23.5169,VALID,282,VALID,0,
2011-04-02, 02:29:04,VALID,1007.96,VALID,0,VALID,104,VALID,0,VALID,23.5381,VALID,282,VALID,0,
2011-04-02, 02:30:04,VALID,1007.94,VALID,0,VALID,104,VALID,0,VALID,23.4974,VALID,282,VALID,0,
2011-04-02, 02:31:04,VALID,1007.91,VALID,0,VALID,104,VALID,0,VALID,23.5186,VALID,282,VALID,0,
2011-04-02, 02:32:04,VALID,1007.91,VALID,0,VALID,104,VALID,0,VALID,23.5186,VALID,282,VALID,0,
2011-04-02, 02:33:04,VALID,1007.89,VALID,0,VALID,104,VALID,0,VALID,23.5186,VALID,282,VALID,0,
2011-04-02, 02:34:04,VALID,1007.9,VALID,0,VALID,104,VALID,0,VALID,23.5186,VALID,282,VALID,0,
2011-04-02, 02:35:04,VALID,1007.89,VALID,0,VALID,104,VALID,0,VALID,23.5381,VALID,282,VALID,0,
2011-04-02, 02:36:04,VALID,1007.88,VALID,0,VALID,104,VALID,0,VALID,23.5186,VALID,282,VALID,0,
2011-04-02, 02:37:04,VALID,1007.89,VALID,0,VALID,104,VALID,0,VALID,23.5169,VALID,282,VALID,0,
2011-04-02, 02:38:04,VALID,1007.88,VALID,0,VALID,104,VALID,0.105969,VALID,23.5576,VALID,282,VALID,0,
2011-04-02, 02:39:04,VALID,1007.91,VALID,0,VALID,104,VALID,0,VALID,23.5169,VALID,282,VALID,0,
2011-04-02, 02:40:04,VALID,1007.89,VALID,0,VALID,104,VALID,0,VALID,23.5771,VALID,282,VALID,0,
2011-04-02, 02:41:04,VALID,1007.9,VALID,0,VALID,104,VALID,0,VALID,23.5771,VALID,282,VALID,0,
2011-04-02, 02:42:04,VALID,1007.91,VALID,0,VALID,104,VALID,0,VALID,23.5771,VALID,282,VALID,0,
2011-04-02, 02:43:04,VALID,1007.88,VALID,0,VALID,104,VALID,0,VALID,23.5576,VALID,282,VALID,0,
2011-04-02, 02:44:04,VALID,1007.88,VALID,0,VALID,104,VALID,0,VALID,23.5771,VALID,282,VALID,0,
2011-04-02, 02:45:04,VALID,1007.9,VALID,0,VALID,104,VALID,0,VALID,23.5771,VALID,282,VALID,0,
2011-04-02, 02:46:04,VALID,1007.93,VALID,0,VALID,104,VALID,0,VALID,23.5558,VALID,282,VALID,0,
2011-04-02, 02:47:04,VALID,1007.94,VALID,0,VALID,104,VALID,0,VALID,23.5558,VALID,282,VALID,0,
2011-04-02, 02:48:04,VALID,1007.93,VALID,0,VALID,104,VALID,0,VALID,23.5771,VALID,282,VALID,0,
2011-04-02, 02:49:04,VALID,1007.89,VALID,0,VALID,104,VALID,0,VALID,23.5966,VALID,282,VALID,0,
2011-04-02, 02:50:04,VALID,1007.87,VALID,0,VALID,104,VALID,0,VALID,23.5753,VALID,282,VALID,0,
2011-04-02, 02:51:04,VALID,1007.82,VALID,0,VALID,104,VALID,0.105969,VALID,23.5771,VALID,282,VALID,0,
2011-04-02, 02:52:04,VALID,1007.83,VALID,0,VALID,104,VALID,0,VALID,23.5771,VALID,282,VALID,0,
2011-04-02, 02:53:04,VALID,1007.83,VALID,0,VALID,104,VALID,0,VALID,23.5576,VALID,282,VALID,0,
2011-04-02, 02:54:04,VALID,1007.83,VALID,0,VALID,104,VALID,0,VALID,23.5381,VALID,282,VALID,0,
2011-04-02, 02:55:04,VALID,1007.78,VALID,0,VALID,104,VALID,0,VALID,23.5381,VALID,282,VALID,0,
2011-04-02, 02:56:04,VALID,1007.78,VALID,0,VALID,104,VALID,0,VALID,23.5169,VALID,282,VALID,0,
2011-04-02, 02:57:04,VALID,1007.76,VALID,0,VALID,104,VALID,0,VALID,23.5381,VALID,282,VALID,0,
2011-04-02, 02:58:04,VALID,1007.76,VALID,0,VALID,104,VALID,0,VALID,23.5186,VALID,282,VALID,0,
2011-04-02, 02:59:04,VALID,1007.75,VALID,0,VALID,104,VALID,0,VALID,23.5186,VALID,282,VALID,0,
2011-04-02, 03:00:04,VALID,1007.76,VALID,0,VALID,104,VALID,0,VALID,23.4992,VALID,282,VALID,0,
2011-04-02, 03:01:04,VALID,1007.77,VALID,0,VALID,104,VALID,0,VALID,23.4797,VALID,282,VALID,0,
2011-04-02, 03:02:04,VALID,1007.77,VALID,0,VALID,104,VALID,0,VALID,23.4389,VALID,282,VALID,0,
2011-04-02, 03:03:04,VALID,1007.78,VALID,0,VALID,104,VALID,0.105969,VALID,23.4584,VALID,282,VALID,0,
2011-04-02, 03:04:04,VALID,1007.81,VALID,0,VALID,104,VALID,0.105969,VALID,23.4584,VALID,282,VALID,0,
2011-04-02, 03:05:04,VALID,1007.78,VALID,0,VALID,104,VALID,0.105969,VALID,23.4797,VALID,282,VALID,0,
2011-04-02, 03:06:04,VALID,1007.8,VALID,0,VALID,104,VALID,0.105969,VALID,23.4584,VALID,282,VALID,0,
2011-04-02, 03:07:04,VALID,1007.8,VALID,0,VALID,104,VALID,0.105969,VALID,23.4584,VALID,282,VALID,0,
2011-04-02, 03:08:04,VALID,1007.79,VALID,0,VALID,104,VALID,0.105969,VALID,23.4779,VALID,282,VALID,0,
2011-04-02, 03:09:04,VALID,1007.77,VALID,0,VALID,104,VALID,0,VALID,23.4779,VALID,282,VALID,0,
2011-04-02, 03:10:04,VALID,1007.78,VALID,0,VALID,104,VALID,0,VALID,23.4797,VALID,282,VALID,0,
2011-04-02, 03:11:04,VALID,1007.77,VALID,0,VALID,104,VALID,0,VALID,23.4389,VALID,282,VALID,0,
2011-04-02, 03:12:04,VALID,1007.73,VALID,0,VALID,104,VALID,0,VALID,23.4407,VALID,282,VALID,0,
2011-04-02, 03:13:04,VALID,1007.69,VALID,0,VALID,104,VALID,0,VALID,23.4212,VALID,282,VALID,0,
2011-04-02, 03:14:04,VALID,1007.71,VALID,0,VALID,104,VALID,0,VALID,23.4,VALID,282,VALID,0,
2011-04-02, 03:15:04,VALID,1007.71,VALID,0,VALID,104,VALID,0,VALID,23.4017,VALID,282,VALID,0,
2011-04-02, 03:16:04,VALID,1007.7,VALID,0,VALID,104,VALID,0.105969,VALID,23.4212,VALID,282,VALID,0,
2011-04-02, 03:17:04,VALID,1007.71,VALID,0,VALID,104,VALID,0,VALID,23.4212,VALID,282,VALID,0,
2011-04-02, 03:18:04,VALID,1007.69,VALID,0,VALID,104,VALID,0.105969,VALID,23.4,VALID,282,VALID,0,
2011-04-02, 03:19:04,VALID,1007.7,VALID,0,VALID,104,VALID,0.105969,VALID,23.4194,VALID,282,VALID,0,
2011-04-02, 03:20:04,VALID,1007.71,VALID,0,VALID,104,VALID,0.105969,VALID,23.4194,VALID,282,VALID,0,
2011-04-02, 03:21:04,VALID,1007.68,VALID,0,VALID,104,VALID,0,VALID,23.4194,VALID,282,VALID,0,
2011-04-02, 03:22:04,VALID,1007.68,VALID,0,VALID,104,VALID,0,VALID,23.4194,VALID,282,VALID,0,
2011-04-02, 03:23:04,VALID,1007.68,VALID,0,VALID,104,VALID,0,VALID,23.4407,VALID,282,VALID,0,
2011-04-02, 03:24:04,VALID,1007.69,VALID,0,VALID,104,VALID,0,VALID,23.4212,VALID,282,VALID,0,
2011-04-02, 03:25:04,VALID,1007.68,VALID,0,VALID,104,VALID,0,VALID,23.4407,VALID,282,VALID,0,
2011-04-02, 03:26:04,VALID,1007.7,VALID,0,VALID,104,VALID,0,VALID,23.4407,VALID,282,VALID,0,
2011-04-02, 03:27:04,VALID,1007.67,VALID,0,VALID,104,VALID,0,VALID,23.4602,VALID,282,VALID,0,
2011-04-02, 03:28:04,VALID,1007.64,VALID,0,VALID,104,VALID,0.105969,VALID,23.4407,VALID,282,VALID,0,
2011-04-02, 03:29:04,VALID,1007.63,VALID,0,VALID,104,VALID,0,VALID,23.4212,VALID,282,VALID,0,
2011-04-02, 03:30:04,VALID,1007.64,VALID,0,VALID,104,VALID,0,VALID,23.4017,VALID,282,VALID,0,
2011-04-02, 03:31:04,VALID,1007.66,VALID,0,VALID,104,VALID,0.105969,VALID,23.3823,VALID,282,VALID,0,
2011-04-02, 03:32:04,VALID,1007.67,VALID,0,VALID,104,VALID,0,VALID,23.3823,VALID,282,VALID,0,
2011-04-02, 03:33:04,VALID,1007.68,VALID,0,VALID,104,VALID,0,VALID,23.3823,VALID,282,VALID,0,
2011-04-02, 03:34:04,VALID,1007.66,VALID,0,VALID,104,VALID,0,VALID,23.3823,VALID,282,VALID,0,
2011-04-02, 03:35:04,VALID,1007.69,VALID,0,VALID,104,VALID,0,VALID,23.3823,VALID,282,VALID,0,
2011-04-02, 03:36:04,VALID,1007.69,VALID,0,VALID,104,VALID,0,VALID,23.3628,VALID,282,VALID,0,
2011-04-02, 03:37:04,VALID,1007.68,VALID,0,VALID,104,VALID,0,VALID,23.3628,VALID,282,VALID,0,
2011-04-02, 03:38:04,VALID,1007.7,VALID,0,VALID,104,VALID,0,VALID,23.3628,VALID,282,VALID,0,
2011-04-02, 03:39:04,VALID,1007.71,VALID,0,VALID,104,VALID,0.105969,VALID,23.3415,VALID,282,VALID,0,
2011-04-02, 03:40:04,VALID,1007.75,VALID,0,VALID,104,VALID,0.105969,VALID,23.3628,VALID,282,VALID,0,
2011-04-02, 03:41:04,VALID,1007.78,VALID,0,VALID,104,VALID,0,VALID,23.3823,VALID,282,VALID,0,
2011-04-02, 03:42:04,VALID,1007.79,VALID,0,VALID,104,VALID,0,VALID,23.3415,VALID,282,VALID,0,
2011-04-02, 03:43:04,VALID,1007.77,VALID,0,VALID,104,VALID,0,VALID,23.3628,VALID,282,VALID,0,
2011-04-02, 03:44:04,VALID,1007.78,VALID,0,VALID,104,VALID,0,VALID,23.3823,VALID,282,VALID,0,
2011-04-02, 03:45:04,VALID,1007.82,VALID,0,VALID,104,VALID,0.105969,VALID,23.3823,VALID,282,VALID,0,
2011-04-02, 03:46:04,VALID,1007.81,VALID,0,VALID,104,VALID,0,VALID,23.3628,VALID,282,VALID,0,
2011-04-02, 03:47:04,VALID,1007.81,VALID,0,VALID,104,VALID,0.105969,VALID,23.3628,VALID,282,VALID,0,
2011-04-02, 03:48:04,VALID,1007.85,VALID,0,VALID,104,VALID,0,VALID,23.3628,VALID,282,VALID,0,
2011-04-02, 03:49:04,VALID,1007.83,VALID,0,VALID,104,VALID,0.105969,VALID,23.3628,VALID,282,VALID,0,
2011-04-02, 03:50:04,VALID,1007.82,VALID,0,VALID,104,VALID,0.105969,VALID,23.3628,VALID,282,VALID,0,
2011-04-02, 03:51:04,VALID,1007.84,VALID,0,VALID,104,VALID,0.105969,VALID,23.361,VALID,282,VALID,0,
2011-04-02, 03:52:04,VALID,1007.85,VALID,0,VALID,104,VALID,0,VALID,23.3805,VALID,282,VALID,0,
2011-04-02, 03:53:04,VALID,1007.82,VALID,0,VALID,104,VALID,0,VALID,23.4017,VALID,282,VALID,0,
2011-04-02, 03:54:04,VALID,1007.83,VALID,0,VALID,104,VALID,0.105969,VALID,23.4,VALID,282,VALID,0,
2011-04-02, 03:55:04,VALID,1007.83,VALID,0,VALID,104,VALID,0.105969,VALID,23.4407,VALID,282,VALID,0,
2011-04-02, 03:56:04,VALID,1007.85,VALID,0,VALID,104,VALID,0,VALID,23.4017,VALID,282,VALID,0,
2011-04-02, 03:57:04,VALID,1007.84,VALID,0,VALID,104,VALID,0,VALID,23.3805,VALID,282,VALID,0,
2011-04-02, 03:58:04,VALID,1007.87,VALID,0,VALID,104,VALID,0,VALID,23.4017,VALID,282,VALID,0,
2011-04-02, 03:59:04,VALID,1007.86,VALID,0,VALID,104,VALID,0.105969,VALID,23.4,VALID,282,VALID,0,
2011-04-02, 04:00:04,VALID,1007.88,VALID,0,VALID,104,VALID,0,VALID,23.4,VALID,282,VALID,0,
2011-04-02, 04:01:04,VALID,1007.87,VALID,0,VALID,104,VALID,0,VALID,23.3805,VALID,282,VALID,0,
2011-04-02, 04:02:04,VALID,1007.9,VALID,0,VALID,104,VALID,0.105969,VALID,23.3805,VALID,282,VALID,0,
2011-04-02, 04:03:04,VALID,1007.9,VALID,0,VALID,104,VALID,0,VALID,23.3823,VALID,282,VALID,0,
2011-04-02, 04:04:04,VALID,1007.91,VALID,0,VALID,104,VALID,0.105969,VALID,23.3823,VALID,282,VALID,0,
2011-04-02, 04:05:04,VALID,1007.9,VALID,0,VALID,104,VALID,0.105969,VALID,23.361,VALID,282,VALID,0,
2011-04-02, 04:06:04,VALID,1007.9,VALID,0,VALID,104,VALID,0,VALID,23.3415,VALID,282,VALID,0,